Stations météo

Publicité
Abbeville, France (7005): Température de l'air & dewpoint: 25.05.2020 05:00:00 - 31.05.2020 05:00:00 (CEST)Abbeville, France (7005): Température de l'air 5cm: 25.05.2020 05:00:00 - 31.05.2020 05:00:00 (CEST)Abbeville, France (7005): Température de l'air -20cm & Température de l'air -100cm: 25.05.2020 05:00:00 - 31.05.2020 05:00:00 (CEST)Abbeville, France (7005): Vitesse du vent & gusts: 25.05.2020 05:00:00 - 31.05.2020 05:00:00 (CEST)Abbeville, France (7005): Direction du vent: 25.05.2020 05:00:00 - 31.05.2020 05:00:00 (CEST)Abbeville, France (7005): reduced air pressure: 25.05.2020 05:00:00 - 31.05.2020 05:00:00 (CEST)Abbeville, France (7005): visibility: 25.05.2020 05:00:00 - 31.05.2020 05:00:00 (CEST)Abbeville, France (7005): Ensoleillement: 25.05.2020 05:00:00 - 31.05.2020 05:00:00 (CEST)Abbeville, France (7005): Quantités de précipitations: 25.05.2020 05:00:00 - 31.05.2020 05:00:00 (CEST)
Date & Time tt [°C] td [°C] tt 5cm [°C] tt -20cm [°C] tt -100cm [°C] ff [km/h] ff [knt] fx [km/h] fx [knt] dd ppp [hPa] vv [km] sd [min] rr [mm]
31.05.2020 05:00:00 11,9 6,0 9,9 17,7 13,7 11 6 16 9 ENE 1020,3 20 0 0,0
31.05.2020 04:00:00 12,3 6,3 9,9 18,0 13,7 10 5 15 8 ENE 1020,3 20 0 0,0
31.05.2020 03:00:00 12,5 7,2 10,9 18,2 13,7 10 6 15 8 NE 1020,1 20 0 0,0
31.05.2020 02:00:00 13,1 7,7 11,4 18,5 13,7 11 6 16 9 NE 1020,3 20 0 0,0
31.05.2020 01:00:00 13,5 8,1 11,6 18,8 13,7 11 6 15 8 NE 1020,4 20 0 0,0
31.05.2020 00:00:00 14,4 8,3 12,5 19,1 13,6 9 5 17 9 NE 1020,2 20 0 0,0
30.05.2020 23:00:00 16,5 8,5 13,1 19,3 13,7 13 7 21 11 NNE 1019,9 20 0 0,0
30.05.2020 22:00:00 17,8 6,9 13,2 19,5 13,7 7 4 13 7 NNE 1019,3 20 0 0,0
30.05.2020 21:00:00 20,8 6,7 21,5 19,6 13,7 9 5 19 10 ENE 1019,0 20 52 0,0
30.05.2020 20:00:00 22,9 5,3 25,3 19,6 13,7 14 7 25 13 ENE 1019,1 20 60 0,0
30.05.2020 19:00:00 23,5 5,8 27,2 19,3 13,6 17 9 28 15 ENE 1019,2 20 60 0,0
30.05.2020 18:00:00 24,1 6,8 29,2 19,1 13,6 13 7 29 16 NE 1019,6 20 60 0,0
30.05.2020 17:00:00 24,3 6,1 29,3 18,7 13,6 15 8 32 17 ENE 1019,9 20 60 0,0
30.05.2020 16:00:00 24,3 7,9 30,0 18,1 13,6 12 7 27 14 NE 1020,4 20 60 0,0
30.05.2020 15:00:00 24,0 5,8 28,5 17,6 13,6 11 6 26 14 ENE 1020,7 20 57 0,0
30.05.2020 14:00:00 23,7 7,7 30,1 17,0 13,6 8 5 22 12 ENE 1021,0 20 60 0,0
30.05.2020 13:00:00 23,2 7,7 29,0 16,6 13,6 6 3 23 12 E 1021,5 17 60 0,0
30.05.2020 12:00:00 22,5 5,8 27,6 16,2 13,6 9 5 22 12 ESE 1021,9 5 60 0,0
30.05.2020 11:00:00 21,0 7,9 24,8 16,0 13,6 9 5 16 9 E 1022,2 6 60 0,0
30.05.2020 10:00:00 19,0 8,6 20,8 16,0 13,6 9 5 16 9 E 1022,3 19 60 0,0
30.05.2020 09:00:00 16,5 8,5 17,3 16,1 13,6 11 6 17 9 E 1022,4 20 60 0,0
30.05.2020 08:00:00 13,8 8,8 12,7 16,2 13,6 8 4 12 6 E 1022,5 19 38 0,0
30.05.2020 07:00:00 10,9 8,5 7,6 16,4 13,6 10 5 15 8 ENE 1022,5 16 25 0,0
30.05.2020 06:00:00 9,4 7,7 7,6 16,7 13,6 8 4 15 8 ENE 1022,5 16 0 0,0
30.05.2020 05:00:00 9,9 7,8 7,9 17,0 13,6 11 6 13 7 ENE 1022,5 18 0 0,0
30.05.2020 04:00:00 10,5 7,9 9,0 17,2 13,5 8 4 15 8 E 1022,8 20 0 0,0
30.05.2020 03:00:00 11,1 7,8 9,8 17,5 13,6 12 6 17 9 ENE 1023,0 20 0 0,0
30.05.2020 02:00:00 11,5 7,2 9,9 17,8 13,5 11 6 19 10 ENE 1023,3 20 0 0,0
30.05.2020 01:00:00 12,2 6,7 10,9 18,1 13,6 13 7 21 11 NE 1023,4 20 0 0,0
30.05.2020 00:00:00 13,4 6,3 12,2 18,3 13,5 14 8 26 14 NE 1023,4 20 0 0,0
29.05.2020 23:00:00 14,6 6,4 13,5 18,5 13,5 16 8 26 14 NE 1023,3 20 0 0,0
29.05.2020 22:00:00 16,2 6,9 14,9 18,7 13,5 14 8 30 16 NNE 1023,1 20 0 0,0
29.05.2020 21:00:00 18,6 7,4 19,1 18,8 13,5 16 9 33 18 NNE 1022,7 20 53 0,0
29.05.2020 20:00:00 21,0 7,9 23,8 18,8 13,5 19 11 33 18 NE 1022,7 20 60 0,0
29.05.2020 19:00:00 22,6 4,1 26,1 18,6 13,5 15 8 29 15 ENE 1022,9 20 60 0,0
29.05.2020 18:00:00 23,0 3,5 27,4 18,3 13,5 18 10 29 15 ENE 1023,3 20 60 0,0
29.05.2020 17:00:00 23,1 5,0 28,1 18,0 13,5 18 10 33 18 E 1023,8 20 60 0,0
29.05.2020 16:00:00 22,9 3,9 27,8 17,5 13,5 18 10 35 19 E 1024,4 20 60 0,0
29.05.2020 15:00:00 22,7 4,2 28,2 17,0 13,5 17 9 31 17 ENE 1025,0 20 60 0,0
29.05.2020 14:00:00 22,3 5,2 27,3 16,6 13,5 18 10 33 18 ENE 1025,8 20 60 0,0
29.05.2020 13:00:00 21,3 4,8 26,1 16,2 13,5 16 9 29 16 E 1026,5 20 60 0,0
29.05.2020 12:00:00 20,8 4,8 24,1 15,9 13,5 16 9 26 14 E 1027,0 20 60 0,0
29.05.2020 11:00:00 19,4 5,4 22,2 15,7 13,5 14 8 25 13 E 1027,4 20 60 0,0
29.05.2020 10:00:00 17,6 6,8 19,8 15,7 13,4 14 8 21 11 E 1027,6 20 60 0,0
29.05.2020 09:00:00 15,5 6,8 15,7 15,8 13,4 12 6 27 15 ENE 1027,9 20 60 0,0
29.05.2020 08:00:00 13,2 5,8 12,7 16,0 13,4 18 10 26 14 ENE 1027,6 20 34 0,0
29.05.2020 07:00:00 11,4 5,9 9,2 16,2 13,4 16 8 22 12 ENE 1027,9 20 23 0,0
29.05.2020 06:00:00 10,3 6,3 8,6 16,5 13,4 16 8 21 11 ENE 1028,0 20 0 0,0
29.05.2020 05:00:00 9,9 7,3 8,5 16,7 13,4 13 7 18 10 ENE 1028,3 20 0 0,0
29.05.2020 04:00:00 10,5 7,9 9,0 17,0 13,4 12 6 19 10 ENE 1028,5 20 0 0,0
29.05.2020 03:00:00 10,5 8,3 9,0 17,2 13,4 11 6 18 10 ENE 1028,7 20 0 0,0
29.05.2020 02:00:00 10,9 8,5 8,5 17,5 13,4 10 6 16 8 ENE 1028,9 20 0 0,0
29.05.2020 01:00:00 11,8 8,3 9,7 17,8 13,4 8 4 20 11 ENE 1029,1 20 0 0,0
29.05.2020 00:00:00 13,3 8,6 12,2 18,0 13,4 14 8 29 16 NE 1029,2 20 0 0,0
28.05.2020 23:00:00 14,3 8,7 13,1 18,3 13,4 16 9 29 16 NE 1029,1 20 0 0,0
28.05.2020 22:00:00 15,8 9,0 14,8 18,4 13,4 18 10 34 19 NE 1029,0 20 0 0,0
28.05.2020 21:00:00 18,0 8,8 18,4 18,5 13,4 19 10 31 17 NNE 1028,8 20 51 0,0
28.05.2020 20:00:00 20,8 4,4 22,8 18,5 13,4 19 10 34 18 ENE 1028,6 20 60 0,0
28.05.2020 19:00:00 21,4 4,0 24,7 18,4 13,4 21 12 42 23 ENE 1028,9 20 60 0,0
28.05.2020 18:00:00 21,9 5,3 26,5 18,2 13,3 18 10 37 20 NE 1029,2 20 60 0,0
28.05.2020 17:00:00 22,0 4,5 26,9 17,9 13,4 21 12 39 21 ENE 1029,7 20 60 0,0
28.05.2020 16:00:00 21,7 4,3 26,5 17,5 13,3 24 13 40 22 ENE 1030,3 20 60 0,0
28.05.2020 15:00:00 21,4 4,9 26,1 17,1 13,3 25 14 41 22 ENE 1030,8 20 60 0,0
28.05.2020 14:00:00 20,8 4,8 25,3 16,7 13,3 20 11 35 19 E 1031,5 20 60 0,0
28.05.2020 13:00:00 19,6 5,6 24,0 16,4 13,3 19 10 44 24 ENE 1032,1 20 60 0,0
28.05.2020 12:00:00 18,0 7,4 22,6 16,2 13,3 19 11 32 17 ENE 1032,7 20 60 0,0
28.05.2020 11:00:00 16,8 8,5 21,1 16,1 13,3 18 10 28 15 NE 1033,2 19 60 0,0
28.05.2020 10:00:00 15,8 9,0 19,2 16,1 13,3 14 7 24 13 ENE 1033,4 20 60 0,0
28.05.2020 09:00:00 14,3 8,9 15,7 16,1 13,3 15 8 29 15 ENE 1033,8 20 60 0,0
28.05.2020 08:00:00 12,9 9,9 12,9 16,3 13,3 15 8 27 14 NE 1033,7 18 33 0,0
28.05.2020 07:00:00 11,9 10,3 11,1 16,5 13,3 10 6 20 11 NE 1033,8 9 14 0,0
28.05.2020 06:00:00 11,3 10,2 9,4 16,7 13,3 11 6 19 11 NE 1033,7 8 0 0,0
28.05.2020 05:00:00 9,9 9,0 8,3 16,9 13,3 8 4 18 10 NE 1034,0 12 0 0,0
28.05.2020 04:00:00 10,4 9,2 9,5 17,2 13,2 14 7 22 12 NE 1034,0 14 0 0,0
28.05.2020 03:00:00 10,9 8,8 9,9 17,4 13,3 9 5 21 12 NE 1034,2 20 0 0,0
28.05.2020 02:00:00 12,2 8,1 10,8 17,7 13,2 14 7 23 12 NNE 1034,2 20 0 0,0
28.05.2020 01:00:00 12,6 8,1 11,2 18,0 13,3 9 5 16 9 NE 1034,4 20 0 0,0
28.05.2020 00:00:00 13,4 8,0 11,9 18,2 13,3 9 5 19 10 NE 1034,5 20 0 0,0
27.05.2020 23:00:00 13,9 8,3 12,2 18,5 13,3 9 5 17 9 NNE 1034,7 20 0 0,0
27.05.2020 22:00:00 15,9 8,6 14,3 18,7 13,3 11 6 25 14 NNE 1034,1 20 6 0,0
27.05.2020 21:00:00 18,2 8,2 17,8 18,8 13,2 16 9 32 17 NE 1033,7 20 35 0,0
27.05.2020 20:00:00 20,1 9,3 22,8 18,8 13,2 20 11 34 18 NNE 1033,6 20 60 0,0
27.05.2020 19:00:00 21,2 9,4 24,9 18,7 13,2 21 11 34 18 NE 1033,2 20 60 0,0
27.05.2020 18:00:00 21,9 9,8 27,0 18,4 13,2 23 12 36 20 NNE 1033,4 20 60 0,0
27.05.2020 17:00:00 22,7 11,1 28,2 18,1 13,2 22 12 39 21 NNE 1033,5 20 60 0,0
27.05.2020 16:00:00 23,1 11,2 25,7 17,7 13,2 19 10 34 18 NE 1033,6 20 48 0,0
27.05.2020 15:00:00 23,5 10,9 27,1 17,2 13,2 17 9 30 16 NE 1033,7 20 57 0,0
27.05.2020 14:00:00 23,0 11,1 29,4 16,7 13,2 17 9 32 17 NNE 1034,0 20 60 0,0
27.05.2020 13:00:00 22,0 9,2 29,4 16,3 13,2 15 8 26 14 NNE 1034,5 20 60 0,0
27.05.2020 12:00:00 21,4 10,2 26,4 16,0 13,2 13 7 20 11 N 1034,8 20 60 0,0
27.05.2020 11:00:00 20,0 9,5 25,6 15,8 13,2 12 6 19 10 NE 1035,0 20 60 0,0
27.05.2020 10:00:00 19,1 9,8 21,7 15,7 13,2 12 7 17 9 NE 1035,1 20 60 0,0
27.05.2020 09:00:00 16,5 8,9 19,5 15,8 13,2 11 6 20 11 NE 1035,4 20 60 0,0
27.05.2020 08:00:00 14,6 8,8 15,1 16,0 13,2 8 5 13 7 NE 1035,3 20 31 0,0
27.05.2020 07:00:00 12,4 9,0 7,1 16,2 13,2 5 3 11 6 NNE 1035,0 20 35 0,0
27.05.2020 06:00:00 9,7 7,0 7,1 16,5 13,2 7 4 10 5 N 1034,9 20 0 0,0
27.05.2020 05:00:00 10,1 7,5 6,6 16,7 13,1 6 3 9 5 NE 1034,8 19 0 0,0
27.05.2020 04:00:00 11,1 8,0 6,2 17,0 13,1 5 3 10 5 NNE 1034,8 20 0 0,0
27.05.2020 03:00:00 12,0 8,3 7,2 17,3 13,1 3 1 8 4 N 1035,0 20 0 0,0
27.05.2020 02:00:00 12,3 9,1 7,7 17,7 13,2 3 2 7 4 NNE 1035,0 20 0 0,0
27.05.2020 01:00:00 12,9 10,1 8,1 17,9 13,1 4 2 8 4 N 1035,2 20 0 0,0
27.05.2020 00:00:00 14,1 10,3 9,2 18,1 13,1 5 3 8 4 WNW 1035,1 20 0 0,0
26.05.2020 23:00:00 15,2 10,6 9,5 18,3 13,1 4 2 9 5 NNW 1035,0 20 0 0,0
26.05.2020 22:00:00 17,0 11,0 13,2 18,4 13,1 4 2 15 8 WNW 1034,7 20 0 0,0
26.05.2020 21:00:00 19,8 9,1 20,0 18,5 13,1 8 5 18 10 N 1034,5 20 46 0,0
26.05.2020 20:00:00 21,5 10,9 24,5 18,4 13,1 13 7 23 12 NW 1034,1 20 60 0,0
26.05.2020 19:00:00 21,9 10,1 24,9 18,3 13,1 18 10 27 15 NW 1034,3 20 60 0,0
26.05.2020 18:00:00 22,6 10,1 25,8 18,0 13,1 18 10 31 17 NW 1034,4 20 56 0,0
26.05.2020 17:00:00 23,0 10,8 27,2 17,7 13,1 19 10 33 18 NW 1034,6 20 60 0,0
26.05.2020 16:00:00 23,0 11,7 24,0 17,3 13,1 20 11 29 16 WNW 1034,9 19 46 0,0
26.05.2020 15:00:00 23,4 12,1 23,8 16,9 13,0 16 9 28 15 WNW 1035,0 20 38 0,0
26.05.2020 14:00:00 22,3 9,8 25,6 16,4 13,0 9 5 17 9 N 1035,4 20 29 0,0
26.05.2020 13:00:00 23,3 10,0 30,3 15,9 13,1 2 1 17 9 NNE 1035,6 20 60 0,0
26.05.2020 12:00:00 22,3 10,8 28,8 15,6 13,1 3 2 13 7 NNE 1035,8 20 60 0,0
26.05.2020 11:00:00 21,4 10,8 27,5 15,4 13,1 3 1 10 5 NNW 1036,1 20 60 0,0
26.05.2020 10:00:00 19,2 11,2 21,7 15,3 13,0 0 0 6 3 N 1036,0 20 60 0,0
26.05.2020 09:00:00 16,8 11,3 19,5 15,4 13,1 2 1 7 4 E 1035,9 20 60 0,0
26.05.2020 08:00:00 14,2 11,0 11,8 15,5 13,1 0 0 9 5 N 1036,0 20 29 0,0
26.05.2020 07:00:00 10,5 8,9 5,2 15,7 13,0 5 3 10 5 E 1035,9 20 39 0,0
26.05.2020 06:00:00 9,0 7,8 5,3 16,0 13,0 4 2 8 4 NNE 1035,6 20 0 0,0
26.05.2020 05:00:00 10,2 8,6 6,7 16,3 13,0 5 3 9 5 E 1035,2 20 0 0,0
26.05.2020 04:00:00 10,6 9,0 5,3 16,5 13,0 2 1 7 4 ENE 1035,2 20 0 0,0
26.05.2020 03:00:00 10,5 8,6 6,1 16,9 13,1 6 3 8 5 N 1035,3 20 0 0,0
26.05.2020 02:00:00 11,4 8,4 7,2 17,1 13,1 6 3 18 10 NNW 1035,3 20 0 0,0
26.05.2020 01:00:00 14,1 9,5 11,3 17,3 13,0 5 3 13 7 SE 1035,0 20 0 0,0
26.05.2020 00:00:00 14,0 9,6 11,7 17,6 13,0 11 6 13 7 ENE 1034,9 20 0 0,0
25.05.2020 23:00:00 15,0 9,4 12,0 17,8 13,0 8 5 13 7 ENE 1034,8 20 0 0,0
25.05.2020 22:00:00 15,4 10,0 11,9 17,9 13,0 7 4 12 7 NNE 1034,7 20 0 0,0
25.05.2020 21:00:00 18,7 10,8 18,9 18,0 13,0 9 5 20 11 WNW 1034,2 20 48 0,0
25.05.2020 20:00:00 20,5 10,0 24,0 17,9 13,0 15 8 29 15 NNW 1033,9 20 60 0,0
25.05.2020 19:00:00 21,2 11,5 24,2 17,8 13,0 20 11 29 16 NW 1033,7 20 53 0,0
25.05.2020 18:00:00 22,6 11,6 21,7 17,4 13,0 7 4 20 11 W 1033,8 20 40 0,0
25.05.2020 17:00:00 21,1 9,7 23,4 17,0 13,0 9 5 23 13 NE 1034,1 20 43 0,0
25.05.2020 16:00:00 22,1 9,9 24,7 16,5 13,0 11 6 20 11 NNE 1034,2 20 50 0,0
25.05.2020 15:00:00 21,7 10,8 26,5 16,0 13,0 11 6 21 11 NNE 1034,4 19 41 0,0
25.05.2020 14:00:00 21,3 9,8 24,4 15,4 13,0 9 5 24 13 ENE 1034,9 20 48 0,0
25.05.2020 13:00:00 20,6 10,7 28,2 14,9 13,0 11 6 23 12 NE 1035,0 20 60 0,0
25.05.2020 12:00:00 20,6 11,2 26,7 14,5 13,0 10 5 23 13 ENE 1035,0 20 58 0,0
25.05.2020 11:00:00 19,5 12,0 25,2 14,3 13,0 7 4 14 8 NE 1035,1 19 60 0,0
25.05.2020 10:00:00 17,7 12,6 21,2 14,2 13,0 4 2 10 5 E 1035,1 19 60 0,0
25.05.2020 09:00:00 15,6 12,2 15,1 14,2 13,0 2 1 8 4 ENE 1035,0 16 60 0,0
25.05.2020 08:00:00 11,9 10,3 11,3 14,3 13,0 4 2 6 3 E 1035,0 16 24 0,0
25.05.2020 07:00:00 9,9 9,3 6,9 14,5 13,0 2 1 6 4 SE 1034,7 16 38 0,0
25.05.2020 06:00:00 9,4 8,6 5,0 14,6 13,0 3 1 5 3 S 1034,3 15 0 0,0
25.05.2020 05:00:00 9,5 8,6 4,8 14,8 13,0 2 1 9 5 WNW 1034,1 10 0 0,0

tt = Température de l'air
td = dewpoint
tt 5cm = Température de l'air 5cm
tt -20cm = Température de l'air -20cm
tt -100cm = Température de l'air -100cm
ff = Vitesse du vent
fx = gusts
dd = Direction du vent
ppp = reduced air pressure
vv = visibility
sd = Ensoleillement
rr = Quantités de précipitations

stations d'obs. à proximité